Regional Weather Roundup
Issued by NWS Cleveland, OH

Home | Current Version | Previous Version | Graphics & Text | Print | Product List | Glossary On
Versions: 1 2 3 4 5 6 7 8 9 10 11 12 13 14 15 16 17 18 19 20 21 22 23 24 25 26 27 28 29 30 31 32 33 34 35 36 37 38 39 40 41 42 43 44 45 46 47 48 49 50
000
ASUS41 KCLE 200600
RWRCLE
OHIO REGIONAL WEATHER ROUNDUP
NATIONAL WEATHER SERVICE WILMINGTON, OH
200 AM EDT SUN MAY 20 2018

NOTE: "FAIR" INDICATES FEW OR NO CLOUDS BELOW 12,000 FEET WITH NO
SIGNIFICANT WEATHER AND/OR OBSTRUCTIONS TO VISIBILITY.

OHZ001>008-015>018-024>027-034-035-043-044-200700-
   NORTHWEST OHIO

CITY           SKY/WX    TMP DP  RH WIND       PRES   REMARKS
DEFIANCE       FAIR      60  57  89 NW5       29.99R
FINDLAY        FAIR      64  61  90 W7        29.98R
TOLEDO EXPRESS FAIR      62  60  93 W7        29.97R
TOLEDO EXEC    FAIR      63  59  87 W7        29.97R
LIMA           FAIR      63  61  93 NW9       30.00R
$$

OHZ009>014-019>023-028>033-038-089-200700-
   NORTHEAST OHIO

CITY           SKY/WX    TMP DP  RH WIND       PRES   REMARKS
CLE-HOPKINS    CLOUDY    68  66  93 SW5       29.96S
CLE-LAKEFRONT  FOG       62  60  93 W7        29.94R VSB 1
CUY CO. ARPT   NOT AVBL
LORAIN-ELYRIA  CLOUDY    67  59  75 NW12      29.96R
ASHTABULA      CLOUDY    66  66 100 W12       29.94R
AKRON-CANTON   CLOUDY    69  63  81 SW6       29.96S
WOOSTER        NOT AVBL
MANSFIELD      MOCLDY    66  66 100 W5        29.97S
YOUNGSTOWN     CLOUDY    66  65  96 SW7       29.95R
$$

OHZ042-051>053-060>062-070>072-077>081-200700-
  SOUTHWEST OHIO

CITY           SKY/WX    TMP DP  RH WIND       PRES   REMARKS
CINC-COVINGTON MOCLDY    68  65  90 CALM      30.00S
CINC-LUNKEN    FOG       63  63 100 CALM      30.00S VSB 1/4
HAMILTON       FAIR      65  64  97 CALM      30.00S FOG
DAYTON         NOT AVBL
WRIGHT-PAT AFB FAIR      65  64  96 SW3       29.99S
DAYTON GENERAL FAIR      68  65  90 CALM      29.99S
WILMINGTON     FAIR      65  65 100 SW5       30.00S FOG
$$

OHZ036-037-039>041-045>050-054>059-063>069-073>076-082>088-200700-
  CENTRAL AND SOUTHEAST OHIO

CITY           SKY/WX    TMP DP  RH WIND       PRES   REMARKS
COLUMBUS       MOCLDY    68  65  90 S5        29.98F
OSU AIRPORT    FAIR      68  65  90 SW8       29.98S
BOLTON FIELD   NOT AVBL
RICKENBACK AFB NOT AVBL
NEWARK         FAIR      69  66  90 SW7       29.98S
MARION         CLOUDY    68  65  90 NW5       29.99R
LANCASTER      MOCLDY    67  66  97 SW5       29.99F
ZANESVILLE     FAIR      67  65  93 SW5       29.99S
NEW PHILLY     MOCLDY    68  65  90 MISG      29.98S
$$




USA.gov is the U.S. government's official web portal to all federal, state and local government web resources and services.